Location: Helsinki
(60.1699°N, 24.9384°E)
Time: 00:48:44
(UTC+02:00)

Vanguard 2 Rocket - Pass Details

Date: 29 September 2023
Orbit: 553 x 3312 km, 32.9° (Epoch: 28 November)

Event Time Altitude Azimuth Distance (km) Brightness Sun altitude
Rises 15:56:42 0° 256° (WSW) 7,126 12.5 19.6°
Reaches altitude 10° 16:02:59 10° 244° (WSW) 6,245 12.9 19.0°
Maximum altitude 16:16:10 23° 203° (SSW) 5,107 12.1 17.8°
Drops below altitude 10° 16:27:59 10° 160° (SSE) 5,531 11.2 16.7°
Sets 16:33:05 0° 147° (SSE) 6,153 11.2 16.2°
